Погода в Краснознаменске

Россия / Калининградская область     54°56′31″N   22°29′26″E
темп.,
°C
ветер,
м/с
пор.,
м/с
влажн.,
%
обл.,
%
осадки,
мм/ч
давл.,
гПа
погр.,
м
12 апреля, пн
пн1223:00+11юв61669100 0.0 1018571
02:00+11ююв51469100 0.0 1018500
05:00+10ююв41271100 0.0 1018386
08:00+10юв41170100 0.0 1018432
11:00+12ююв41067100 0.2 1018681
14:00+10ююв31078100 1.4 1018597
17:00+10ююв268297 0.0 1017249
20:00+7зсз4794100 0.0 1018231
13 апреля, вт
вт1323:00+4зсз5993100 1.0 1020475
02:00+3зсз41096100 1.6 1022531
05:00+4зсз2792100 0.0 1022427
08:00+5сз3785100 0.0 1024383
11:00+6сз3561100 0.0 1024874
14:00+9сз4544100 0.0 10241418
17:00+8сз5545100 0.0 10241211
20:00+5сз4767100 0.0 1024387
14 апреля, ср
ср1423:00+3сз3679100 0.1 1023348
02:00+3сз258597 0.1 1022297
05:00+2сз259296 0.0 1022177
08:00+5ссз2475100 0.0 1021429
11:00+8ссз245285 0.0 10211210
14:00+10ссз3441100 0.0 10202014
17:00+10ссв3545100 0.0 10201830
20:00+7св4957100 0.0 1021481
15 апреля, чт
чт1523:00+5ссв4968100 0.0 1022469
02:00+4ссв41168100 0.0 1021568
05:00+4ссв51274100 0.0 1021881
08:00+4ссв51189100 0.3 1021770
11:00+5св51179100 0.0 1021642
14:00+5св51182100 0.7 1021582
17:00+7св41177100 0.6 1021725
20:00+7св51273100 0.6 1021578
16 апреля, пт
пт1623:00+6св41273100 0.0 1022471
02:00+5св5127494 0.0 1022449
05:00+4св41272100 0.0 1022474
08:00+5св5126988 0.0 1023528
11:00+7св5106696 0.0 1023693
14:00+11всв596185 0.0 10231212
17:00+11всв51064100 0.0 10241200
20:00+9всв51264100 0.0 10251005